TimeCST,TemperatureF,Dew PointF,Humidity,Sea Level PressureIn,VisibilityMPH,Wind Direction,Wind SpeedMPH,Gust SpeedMPH,PrecipitationIn,Events,Conditions,WindDirDegrees,DateUTC
12:52 AM,28.0,21.9,78,30.12,7.0,SSE,9.2,-,N/A,,Scattered Clouds,160,2013-03-03 06:52:00
1:52 AM,27.0,21.9,81,30.10,7.0,SSE,10.4,-,N/A,,Scattered Clouds,160,2013-03-03 07:52:00
2:52 AM,27.0,21.9,81,30.07,7.0,SSE,10.4,-,N/A,,Scattered Clouds,150,2013-03-03 08:52:00
3:52 AM,27.0,21.0,78,30.05,7.0,SSE,8.1,-,N/A,,Scattered Clouds,150,2013-03-03 09:52:00
4:52 AM,26.1,21.0,81,30.04,7.0,SE,8.1,-,N/A,,Mostly Cloudy,140,2013-03-03 10:52:00
5:52 AM,26.6,21.2,80,29.99,7.0,SE,11.5,-,N/A,,Mostly Cloudy,140,2013-03-03 11:52:00
6:52 AM,26.1,19.9,78,30.02,7.0,SE,9.2,-,N/A,,Scattered Clouds,140,2013-03-03 12:52:00
7:52 AM,28.0,19.9,72,30.01,6.0,SE,12.7,-,N/A,,Haze,140,2013-03-03 13:52:00
8:52 AM,28.9,21.0,72,30.00,6.0,SSE,12.7,-,N/A,,Haze,150,2013-03-03 14:52:00
9:52 AM,30.9,23.0,72,29.98,6.0,SSE,12.7,-,N/A,,Haze,160,2013-03-03 15:52:00
10:52 AM,34.0,25.0,70,29.96,6.0,SSE,12.7,-,N/A,,Haze,150,2013-03-03 16:52:00
11:52 AM,36.0,25.0,64,29.94,7.0,SE,12.7,-,N/A,,Mostly Cloudy,130,2013-03-03 17:52:00
12:52 PM,37.0,26.1,65,29.90,7.0,SE,13.8,-,N/A,,Mostly Cloudy,130,2013-03-03 18:52:00
1:52 PM,37.9,27.0,65,29.87,8.0,SSE,16.1,-,N/A,,Overcast,160,2013-03-03 19:52:00
2:52 PM,37.9,27.0,65,29.86,8.0,SE,12.7,-,N/A,,Overcast,130,2013-03-03 20:52:00
3:52 PM,37.9,27.0,65,29.84,9.0,SE,20.7,24.2,N/A,,Overcast,130,2013-03-03 21:52:00
4:52 PM,37.0,27.0,67,29.83,9.0,SE,20.7,-,N/A,,Overcast,130,2013-03-03 22:52:00
5:52 PM,36.0,25.0,64,29.81,9.0,SE,17.3,-,N/A,,Overcast,130,2013-03-03 23:52:00
6:52 PM,36.0,25.0,64,29.83,10.0,SSE,17.3,-,N/A,,Overcast,160,2013-03-04 00:52:00
7:52 PM,35.1,25.0,67,29.83,10.0,SE,18.4,-,N/A,,Overcast,140,2013-03-04 01:52:00
8:52 PM,34.0,26.1,73,29.82,10.0,SE,15.0,-,N/A,,Overcast,130,2013-03-04 02:52:00
9:52 PM,34.0,24.1,67,29.81,10.0,SE,16.1,-,N/A,,Overcast,130,2013-03-04 03:52:00
10:52 PM,34.0,24.1,67,29.80,10.0,SE,15.0,-,N/A,,Overcast,140,2013-03-04 04:52:00
11:52 PM,33.1,24.1,70,29.76,10.0,SE,12.7,-,N/A,,Scattered Clouds,130,2013-03-04 05:52:00